Location: Unspecified
(0.0000°N, 0.0000°E)
Time: 09:12:49
(UTC+00:00)

deb Explorer IX - Pass Details

Date: 21 December 2018
Orbit: 538 x 1115 km, 38.8° (Epoch: 17 January)

Event Time Altitude Azimuth Distance (km) Brightness Sun altitude
Rises 10:10:28 0° 202° (SSW) 3,932 ? 54.9°
Reaches altitude 10° 10:14:22 10° 184° (S) 2,938 ? 55.6°
Maximum altitude 10:18:58 18° 144° (SE) 2,336 ? 56.4°
Drops below altitude 10° 10:23:18 10° 104° (ESE) 2,756 ? 57.2°
Sets 10:26:46 0° 85° (E) 3,598 ? 57.7°
